GW1572 Weather Reports


time (UTC)temp
C
wind
direction
speed
KPH
gust
KPH
rain 1hr
cm
rain 24hr
cm
rain mn
cm
humidity
%
barometer
mb
20260902223034 36 162 0.0 0.0 0.00 0.00 0.00 64 1008.1
20260902222413 36 165 0.0 1.6 0.00 0.00 0.00 65 1008.1
20260902221814 36 196 0.0 0.0 0.00 0.00 0.00 65 1007.7
20260902221219 36 139 0.0 0.0 0.00 0.00 0.00 65 1007.7
20260902220629 36 149 0.0 1.6 0.00 0.00 0.00 64 1008.1
20260902220047 36 182 1.6 1.6 0.00 0.00 0.00 64 1008.1
20260902215407 36 181 0.0 1.6 0.00 0.00 0.00 63 1007.7
20260902214848 36 168 1.6 1.6 0.00 0.00 0.00 64 1007.7
20260902214236 36 143 0.0 1.6 0.00 0.00 0.00 59 1008.1
20260902213633 36 285 3.2 3.2 0.00 0.00 0.00 56 1007.7
20260902213030 37 74 1.6 1.6 0.00 0.00 0.00 56 1008.1
20260902212428 36 318 1.6 1.6 0.00 0.00 0.00 58 1007.7
20260902211842 36 208 1.6 1.6 0.00 0.00 0.00 60 1007.7
20260902210614 36 143 1.6 1.6 0.00 0.00 0.00 55 1007.7
20260902210017 36 68 1.6 3.2 0.00 0.00 0.00 56 1008.1
20260902205407 37 314 1.6 3.2 0.00 0.00 0.00 56 1008.1
20260902204845 37 160 1.6 1.6 0.00 0.00 0.00 56 1008.4
20260902204243 36 157 1.6 3.2 0.00 0.00 0.00 55 1008.4
20260902203641 36 207 1.6 1.6 0.00 0.00 0.00 53 1008.4
20260902203013 36 14 1.6 1.6 0.00 0.00 0.00 55 1008.8
20260902202412 36 73 1.6 1.6 0.00 0.00 0.00 56 1008.4
20260902201809 36 272 3.2 3.2 0.00 0.00 0.00 58 1008.8
20260902201247 37 3 4.8 4.8 0.00 0.00 0.00 54 1008.8
20260902200642 36 123 1.6 1.6 0.00 0.00 0.00 54 1008.8
20260902194813 36 150 3.2 3.2 0.00 0.00 0.00 54 1009.1
20260902194231 36 189 3.2 3.2 0.00 0.00 0.00 58 1009.1
20260902193638 36 142 1.6 1.6 0.00 0.00 0.00 56 1009.1
20260902193024 36 341 3.2 3.2 0.00 0.00 0.00 56 1009.1
20260902192449 36 171 1.6 1.6 0.00 0.00 0.00 58 1009.4
20260902191835 36 259 1.6 1.6 0.00 0.00 0.00 55 1009.1
20260902190627 35 290 3.2 3.2 0.00 0.00 0.00 57 1009.1
20260902190016 36 229 1.6 1.6 0.00 0.00 0.00 58 1009.1
20260902185448 34 277 3.2 3.2 0.00 0.00 0.00 58 1009.1
20260902184841 35 24 3.2 4.8 0.00 0.00 0.00 59 1009.1
20260902183609 35 120 1.6 1.6 0.00 0.00 0.00 63 1009.4
20260902183035 35 328 3.2 3.2 0.00 0.00 0.00 59 1009.4
20260902182443 35 205 1.6 1.6 0.00 0.00 0.00 61 1009.4
20260902181247 34 15 1.6 1.6 0.00 0.00 0.00 59 1009.4
20260902180645 34 353 3.2 4.8 0.00 0.00 0.00 59 1009.4
20260902180012 34 237 6.4 6.4 0.00 0.00 0.00 60 1009.4
20260902175423 34 347 4.8 6.4 0.00 0.00 0.00 63 1009.4
20260902174813 34 55 3.2 4.8 0.00 0.00 0.00 63 1009.8
20260902174234 34 328 3.2 4.8 0.00 0.00 0.00 63 1009.8
20260902173634 34 37 1.6 3.2 0.00 0.00 0.00 64 1009.8
20260902173028 33 63 3.2 4.8 0.00 0.00 0.00 66 1010.1
20260902172444 33 244 3.2 4.8 0.00 0.00 0.00 65 1010.4
20260902171817 33 349 3.2 3.2 0.00 0.00 0.00 65 1010.4
20260902171206 33 259 3.2 4.8 0.00 0.00 0.00 65 1010.4
20260902170647 33 73 1.6 3.2 0.00 0.00 0.00 64 1010.4
20260902170024 33 317 4.8 6.4 0.00 0.00 0.00 67 1010.4
20260902165424 33 209 1.6 1.6 0.00 0.00 0.00 68 1010.4
20260902164207 33 320 3.2 3.2 0.00 0.00 0.00 67 1010.8
20260902163612 33 195 1.6 3.2 0.00 0.00 0.00 70 1010.8
20260902163010 33 151 0.0 1.6 0.00 0.00 0.00 67 1010.8
20260902162424 33 270 0.0 1.6 0.00 0.00 0.00 71 1011.1
20260902161822 33 171 0.0 1.6 0.00 0.00 0.00 69 1011.1
20260902161215 32 173 0.0 1.6 0.00 0.00 0.00 72 1011.1
20260902160043 32 255 3.2 4.8 0.00 0.00 0.00 72 1011.1
20260902155438 32 295 3.2 4.8 0.00 0.00 0.00 74 1011.1
20260902154817 32 282 1.6 3.2 0.00 0.00 0.00 72 1011.1
20260902154230 32 178 3.2 3.2 0.00 0.00 0.00 76 1011.5
20260902153033 31 135 1.6 3.2 0.00 0.00 0.00 74 1011.5
20260902152412 31 88 1.6 1.6 0.00 0.00 0.00 75 1011.1
20260902151838 30 181 1.6 1.6 0.00 0.00 0.00 78 1011.1
20260902150029 29 177 1.6 1.6 0.00 0.00 0.00 84 1011.1
20260902145445 28 178 1.6 1.6 0.00 0.00 0.00 87 1011.1
20260902144233 28 157 1.6 1.6 0.00 0.00 0.00 91 1011.1
20260902143627 27 149 0.0 0.0 0.00 0.00 0.00 93 1010.8
20260902143043 27 135 0.0 0.0 0.00 0.00 0.00 92 1010.8
20260902142438 27 157 0.0 1.6 0.00 0.00 0.00 94 1011.1
20260902141822 27 148 0.0 0.0 0.00 0.00 0.00 96 1010.8
20260902141225 26 153 0.0 0.0 0.00 0.00 0.00 96 1011.1
20260902140643 26 152 0.0 0.0 0.00 0.00 0.00 97 1011.1
20260902140014 25 150 0.0 0.0 0.00 0.00 0.00 98 1011.1
20260902135430 25 154 0.0 0.0 0.00 0.00 0.00 99 1011.1
20260902134845 25 160 0.0 1.6 0.00 0.00 0.00 99 1010.8
20260902134207 24 144 0.0 0.0 0.00 0.00 0.00 99 1011.1
20260902133612 24 149 0.0 0.0 0.00 0.00 0.00 99 1011.1
20260902133016 23 153 1.6 1.6 0.00 0.00 0.00 99 1010.8
20260902132406 23 149 0.0 0.0 0.00 0.00 0.00 99 1011.1
20260902131229 23 152 0.0 0.0 0.00 0.00 0.00 99 1010.8
20260902130010 22 151 0.0 0.0 0.00 0.00 0.00 99 1010.8
20260902125429 22 152 0.0 0.0 0.00 0.00 0.00 99 1010.8
20260902123634 22 149 0.0 0.0 0.00 0.00 0.00 99 1010.8
20260902122449 22 149 0.0 0.0 0.00 0.00 0.00 99 1010.8
20260902121822 22 149 0.0 0.0 0.00 0.00 0.00 99 1010.8
20260902121239 22 149 0.0 0.0 0.00 0.00 0.00 99 1010.4
20260902120627 21 149 0.0 0.0 0.00 0.00 0.00 99 1010.8
20260902120044 21 149 0.0 0.0 0.00 0.00 0.00 99 1010.4
20260902115429 21 149 0.0 0.0 0.00 0.00 0.00 99 1010.8
20260902114825 21 153 0.0 0.0 0.00 0.00 0.00 99 1010.4
20260902114231 21 154 0.0 0.0 0.00 0.00 0.00 99 1010.4
20260902113642 21 155 0.0 0.0 0.00 0.00 0.00 99 1010.4
20260902113050 21 155 0.0 0.0 0.00 0.00 0.00 99 1010.4
20260902112431 21 155 0.0 0.0 0.00 0.00 0.00 99 1010.4
20260902111830 21 155 0.0 0.0 0.00 0.00 0.00 99 1010.4
20260902111235 21 156 0.0 0.0 0.00 0.00 0.00 99 1010.4
20260902110637 21 155 0.0 0.0 0.00 0.00 0.00 99 1010.4
20260902110025 21 155 0.0 0.0 0.00 0.00 0.00 99 1010.4
20260902105423 21 155 0.0 0.0 0.00 0.00 0.00 99 1010.4
20260902104809 21 155 0.0 0.0 0.00 0.00 0.00 99 1010.4
20260902103049 21 154 0.0 0.0 0.00 0.00 0.00 99 1010.4
20260902102410 21 154 0.0 0.0 0.00 0.00 0.00 99 1010.4
20260902101226 21 154 0.0 0.0 0.00 0.00 0.00 99 1010.1
20260902100647 21 154 0.0 0.0 0.00 0.00 0.00 99 1010.1
20260902100047 21 154 0.0 0.0 0.00 0.00 0.00 99 1010.1
20260902095431 21 153 0.0 0.0 0.00 0.00 0.00 99 1010.1
20260902094845 21 152 0.0 0.0 0.00 0.00 0.00 99 1010.1
20260902094218 21 151 0.0 0.0 0.00 0.00 0.00 99 1010.1
20260902093642 21 156 0.0 0.0 0.00 0.00 0.00 99 1010.1
20260902093025 21 156 0.0 0.0 0.00 0.00 0.00 99 1010.1
20260902092418 22 156 0.0 0.0 0.00 0.00 0.00 99 1010.1
20260902091820 22 156 0.0 0.0 0.00 0.00 0.00 99 1010.1
20260902091216 22 156 0.0 0.0 0.00 0.00 0.00 99 1010.1
20260902090613 22 156 0.0 0.0 0.00 0.00 0.00 99 1010.1
20260902090043 22 156 0.0 0.0 0.00 0.00 0.00 99 1010.4
20260902085434 22 156 0.0 0.0 0.00 0.00 0.00 99 1010.1
20260902084839 22 156 0.0 0.0 0.00 0.00 0.00 99 1010.1
20260902084212 22 156 0.0 0.0 0.00 0.00 0.00 99 1010.1
20260902083624 22 156 0.0 0.0 0.00 0.00 0.00 99 1010.1
20260902083037 22 156 0.0 0.0 0.00 0.00 0.00 99 1009.8
20260902082429 22 155 0.0 0.0 0.00 0.00 0.00 99 1009.8
20260902081822 22 155 0.0 0.0 0.00 0.00 0.00 99 1009.4
20260902080610 22 156 0.0 0.0 0.00 0.00 0.00 99 1009.8
20260902080014 22 155 0.0 0.0 0.00 0.00 0.00 99 1009.4
20260902074229 22 156 0.0 0.0 0.00 0.00 0.00 99 1009.4
20260902073616 22 151 0.0 0.0 0.00 0.00 0.00 99 1009.4
20260902073027 22 148 0.0 0.0 0.00 0.00 0.00 99 1009.4
20260902072443 22 148 0.0 0.0 0.00 0.00 0.00 99 1009.4
20260902071828 22 147 0.0 0.0 0.00 0.00 0.00 99 1009.4
20260902071230 22 145 0.0 0.0 0.00 0.00 0.00 99 1009.1
20260902070644 22 153 0.0 0.0 0.00 0.00 0.00 99 1009.4
20260902070017 22 149 0.0 0.0 0.00 0.00 0.00 99 1009.4
20260902065448 22 149 0.0 0.0 0.00 0.00 0.00 99 1009.4
20260902064838 22 147 0.0 0.0 0.00 0.00 0.00 99 1009.4
20260902064248 22 148 0.0 0.0 0.00 0.00 0.00 99 1009.4
20260902063632 22 154 0.0 0.0 0.00 0.00 0.00 99 1009.8
20260902063027 22 153 0.0 0.0 0.00 0.00 0.00 99 1009.8
20260902062406 22 153 0.0 0.0 0.00 0.00 0.00 99 1009.4
20260902061837 22 153 0.0 0.0 0.00 0.00 0.00 99 1009.8
20260902061209 22 153 0.0 0.0 0.00 0.00 0.00 99 1009.4
20260902060040 22 153 0.0 0.0 0.00 0.00 0.00 99 1009.4
20260902055429 22 153 0.0 0.0 0.00 0.00 0.00 99 1009.8
20260902054236 23 152 0.0 0.0 0.00 0.00 0.00 99 1009.4
20260902053613 23 149 0.0 0.0 0.00 0.00 0.00 99 1009.4
20260902053036 23 149 0.0 0.0 0.00 0.00 0.00 99 1009.4
20260902051834 23 150 0.0 0.0 0.00 0.00 0.00 99 1009.4
20260902051227 23 144 0.0 0.0 0.00 0.00 0.00 99 1009.4
20260902050618 23 143 0.0 0.0 0.00 0.00 0.00 99 1009.4
20260902050045 23 139 0.0 0.0 0.00 0.00 0.00 99 1009.4
20260902045448 23 144 0.0 0.0 0.00 0.00 0.00 99 1009.1
20260902044823 23 143 0.0 0.0 0.00 0.00 0.00 99 1009.4
20260902044213 23 144 0.0 0.0 0.00 0.00 0.00 99 1009.1
20260902043043 23 142 0.0 0.0 0.00 0.00 0.00 99 1009.1
20260902042435 23 139 0.0 0.0 0.00 0.00 0.00 99 1009.1
20260902041818 23 134 0.0 0.0 0.00 0.00 0.00 99 1008.8
20260902041251 23 139 0.0 0.0 0.00 0.00 0.00 99 1008.8
20260902040647 23 139 0.0 0.0 0.00 0.00 0.00 99 1009.1
20260902040038 23 137 0.0 0.0 0.00 0.00 0.00 99 1009.1
20260902035430 23 140 0.0 0.0 0.00 0.00 0.00 99 1009.1
20260902034242 24 138 0.0 0.0 0.00 0.00 0.00 99 1009.1
20260902033647 24 139 0.0 0.0 0.00 0.00 0.00 99 1009.1
20260902033012 24 138 0.0 0.0 0.00 0.00 0.00 99 1009.1
20260902032448 24 132 0.0 0.0 0.00 0.00 0.00 99 1009.1
20260902031839 24 101 0.0 0.0 0.00 0.00 0.00 99 1009.1
20260902031230 24 139 0.0 0.0 0.00 0.00 0.00 99 1009.1
20260902030631 24 146 0.0 0.0 0.00 0.00 0.00 99 1009.1
20260902030014 24 148 0.0 0.0 0.00 0.00 0.00 99 1009.1
20260902024214 24 148 0.0 0.0 0.00 0.00 0.00 99 1009.4
20260902023023 24 148 0.0 0.0 0.00 0.00 0.00 98 1009.1
20260902021816 25 148 0.0 0.0 0.00 0.00 0.00 98 1009.1
20260902021246 25 148 0.0 0.0 0.00 0.00 0.00 98 1009.1
20260902020623 25 148 0.0 0.0 0.00 0.00 0.00 98 1009.1
20260902020023 25 148 0.0 0.0 0.00 0.00 0.00 98 1009.1
20260902015432 25 148 0.0 0.0 0.00 0.00 0.00 97 1009.1
20260902014811 25 148 0.0 0.0 0.00 0.00 0.00 97 1009.1
20260902014231 25 148 0.0 0.0 0.00 0.00 0.00 97 1008.8
20260902013647 25 147 0.0 0.0 0.00 0.00 0.00 96 1009.1
20260902013044 25 132 0.0 0.0 0.00 0.00 0.00 96 1008.8
20260902012426 25 132 0.0 0.0 0.00 0.00 0.00 96 1008.8
20260902011824 25 129 0.0 0.0 0.00 0.00 0.00 96 1008.8
20260902011249 26 146 0.0 0.0 0.00 0.00 0.00 95 1008.8
20260902010627 26 151 0.0 0.0 0.00 0.00 0.00 96 1008.8
20260902004807 26 142 0.0 0.0 0.00 0.00 0.00 94 1008.8
20260902004231 26 148 0.0 0.0 0.00 0.00 0.00 93 1008.8
20260902003648 26 139 0.0 0.0 0.00 0.00 0.00 92 1008.8
20260902003026 26 149 0.0 0.0 0.00 0.00 0.00 92 1008.8
20260902001832 27 144 0.0 0.0 0.00 0.00 0.00 90 1008.8
20260902001250 27 142 0.0 0.0 0.00 0.00 0.00 89 1008.4
20260902000646 27 147 0.0 0.0 0.00 0.00 0.00 88 1008.4
20260902000008 28 142 0.0 0.0 0.00 0.00 0.00 86 1008.4
20260901235425 28 148 0.0 0.0 0.00 0.00 0.00 84 1008.8
20260901234817 30 146 0.0 0.0 0.00 0.00 0.00 81 1008.4
20260901234248 30 147 0.0 0.0 0.00 0.00 0.00 78 1008.8
20260901233618 31 148 0.0 0.0 0.00 0.00 0.00 76 1008.8
20260901233023 32 148 0.0 0.0 0.00 0.00 0.00 73 1008.8
20260901232439 32 143 0.0 0.0 0.00 0.00 0.00 71 1008.8
20260901231820 33 146 0.0 0.0 0.00 0.00 0.00 69 1008.4
20260901231211 33 150 0.0 0.0 0.00 0.00 0.00 69 1008.4
20260901230012 33 149 0.0 0.0 0.00 0.00 0.00 69 1008.4
20260901224843 33 144 0.0 0.0 0.00 0.00 0.00 68 1008.4
20260901224227 33 352 3.2 3.2 0.00 0.00 0.00 63 1008.1
20260901223610 33 215 3.2 3.2 0.00 0.00 0.00 62 1008.1